Regional Weather Roundup
Issued by NWS

Home | Current Version | Previous Version | Graphics & Text | Print | Product List | Glossary On
Versions: 1 2 3 4 5 6 7 8 9 10 11 12 13 14 15 16 17 18 19 20 21 22 23 24 25 26 27
000
ASUS45 KBOI 240810
RWRID

IDAHO REGIONAL WEATHER ROUNDUP
NATIONAL WEATHER SERVICE BOISE ID
100 AM MST FRI NOV 24 2017

NOTE: "FAIR" INDICATES FEW OR NO CLOUDS BELOW 12000 FEET
WITH NO SIGNIFICANT WEATHER AND/OR OBSTRUCTIONS TO VISIBILITY

IDZ012-014-240900-
SOUTHWEST IDAHO


CITY           SKY/WX    TMP DP  RH WIND       PRES   REMARKS
BOISE          CLOUDY    52  48  86 S5        29.95F
CALDWELL       CLOUDY    56  48  74 W7        29.93F
MOUNTAIN HOME  MOCLDY    56  48  73 N9        29.94R
$$

IDZ016-017-240900-
SOUTHCENTRAL IDAHO


CITY           SKY/WX    TMP DP  RH WIND       PRES   REMARKS
BURLEY         PTCLDY    52  38  58 SW12      29.95F
JEROME         CLOUDY    53  41  63 S10       29.96F
TWIN FALLS     PTCLDY    49  37  63 S15       29.96F
$$

IDZ019>023-240900-
SOUTHEAST IDAHO


CITY           SKY/WX    TMP DP  RH WIND       PRES   REMARKS
IDAHO FALLS    CLEAR     49  38  65 SW18      29.89F
POCATELLO      CLEAR     51  39  63 SW17      29.95F
REXBURG        CLOUDY    49  38  65 SW17G28   29.87F
$$

IDZ006-010-011-018-031-032-240900-
CENTRAL IDAHO MOUNTAINS


CITY           SKY/WX    TMP DP  RH WIND       PRES   REMARKS
MCCALL         CLOUDY    44  40  85 W3        29.93R
HAILEY         MOCLDY    50  39  66 E6        29.95S
STANLEY          N/A     41  38  89 VRB5      29.95R
SALMON         LGT RAIN  47  42  83 NW12      29.84R
CHALLIS        CLOUDY    46  41  82 CALM      29.87S
$$

IDZ002-004-006-007-026-240900-
NORTHERN IDAHO


CITY           SKY/WX    TMP DP  RH WIND       PRES   REMARKS
LEWISTON       CLEAR     48  36  63 SW6       29.94R
LOWELL           N/A     46  46 100 CALM      29.96R
COEUR D`ALENE  CLEAR     40  34  79 SW6       29.89R
MULLAN PASS    PTCLDY    28  22  78 W9        29.83R WCI  19
$$




USA.gov is the U.S. government's official web portal to all federal, state and local government web resources and services.